| time (UTC) | temp F | wind direction | speed MPH | gust MPH | rain 1hr in | rain 24hr in | rain mn in | humidity % | barometer mb |
| 20260502170503 | 69 | 76 | 1.0 | 8.0 | 0.00 | 0.45 | 0.00 | 59 | 1021.4 |
| 20260502164003 | 68 | 91 | 0.0 | 5.0 | 0.00 | 0.52 | 0.00 | 61 | 1021.2 |
| 20260502163503 | 68 | 98 | 0.0 | 3.0 | 0.00 | 0.54 | 0.00 | 67 | 1021.2 |
| 20260502163003 | 68 | 82 | 0.0 | 3.0 | 0.00 | 0.55 | 0.00 | 60 | 1021.2 |
| 20260502162503 | 68 | 88 | 1.0 | 9.0 | 0.00 | 0.57 | 0.00 | 61 | 1021.2 |
| 20260502162003 | 68 | 91 | 1.0 | 9.0 | 0.00 | 0.59 | 0.00 | 61 | 1021.2 |
| 20260502161503 | 68 | 82 | 1.0 | 8.0 | 0.00 | 0.61 | 0.00 | 63 | 1021.1 |
| 20260502161003 | 67 | 68 | 2.0 | 8.0 | 0.00 | 0.63 | 0.00 | 61 | 1021.2 |
| 20260502160503 | 67 | 62 | 2.0 | 8.0 | 0.00 | 0.63 | 0.00 | 62 | 1021.2 |
| 20260502152003 | 65 | 91 | 0.0 | 8.0 | 0.00 | 0.81 | 0.00 | 70 | 1021.1 |
| 20260502151503 | 65 | 98 | 0.0 | 4.0 | 0.00 | 0.82 | 0.00 | 70 | 1021.1 |
| 20260502151024 | 65 | 156 | 0.0 | 3.0 | 0.00 | 0.84 | 0.00 | 75 | 1021.1 |
| 20260502150503 | 65 | 85 | 1.0 | 7.0 | 0.00 | 0.85 | 0.00 | 75 | 1021.1 |
| 20260502130503 | 54 | 271 | 0.0 | 2.0 | 0.00 | 1.14 | 0.00 | 94 | 1019.9 |
| 20260502123503 | 52 | 246 | 0.0 | 3.0 | 0.00 | 1.10 | 0.00 | 94 | 1019.4 |
| 20260502123003 | 52 | 245 | 0.0 | 2.0 | 0.00 | 1.11 | 0.00 | 94 | 1019.3 |
| 20260502122503 | 51 | 167 | 0.0 | 1.0 | 0.00 | 1.12 | 0.00 | 94 | 1019.2 |
| 20260502122003 | 51 | 167 | 0.0 | 1.0 | 0.00 | 1.13 | 0.00 | 94 | 1019.0 |
| 20260502121503 | 51 | 167 | 0.0 | 2.0 | 0.00 | 1.13 | 0.00 | 94 | 1018.9 |
| 20260502121003 | 51 | 167 | 0.0 | 2.0 | 0.00 | 1.14 | 0.00 | 94 | 1018.8 |
| 20260502120503 | 50 | 167 | 0.0 | 1.0 | 0.00 | 1.15 | 0.00 | 94 | 1018.7 |
| 20260502115503 | 50 | 160 | 0.0 | 3.0 | 0.00 | 1.16 | 0.00 | 93 | 1018.6 |
| 20260502115003 | 50 | 158 | 0.0 | 3.0 | 0.00 | 1.17 | 0.00 | 93 | 1018.6 |
| 20260502114503 | 50 | 20 | 0.0 | 2.0 | 0.00 | 1.18 | 0.00 | 93 | 1018.5 |
| 20260502114003 | 50 | 20 | 0.0 | 2.0 | 0.00 | 1.18 | 0.00 | 93 | 1018.4 |
| 20260502113503 | 50 | 12 | 0.0 | 1.0 | 0.00 | 1.19 | 0.00 | 93 | 1018.3 |
| 20260502113003 | 50 | 10 | 0.0 | 2.0 | 0.00 | 1.19 | 0.00 | 93 | 1018.2 |
| 20260502112503 | 50 | 8 | 0.0 | 2.0 | 0.00 | 1.20 | 0.00 | 93 | 1018.2 |
| 20260502112024 | 50 | 0 | 0.0 | 0.0 | 0.00 | 1.20 | 0.00 | 93 | 1018.1 |
| 20260502111503 | 50 | 0 | 0.0 | 0.0 | 0.00 | 1.20 | 0.00 | 93 | 1018.1 |
| 20260502111003 | 50 | 0 | 0.0 | 0.0 | 0.00 | 1.21 | 0.00 | 93 | 1017.9 |
| 20260502110524 | 50 | 0 | 0.0 | 0.0 | 0.00 | 1.21 | 0.00 | 93 | 1017.9 |
| 20260502110004 | 50 | 0 | 0.0 | 0.0 | 0.00 | 1.21 | 0.00 | 93 | 1017.8 |
| 20260502105524 | 50 | 0 | 0.0 | 0.0 | 0.00 | 1.21 | 0.00 | 93 | 1017.7 |
| 20260502105003 | 50 | 0 | 0.0 | 0.0 | 0.00 | 1.21 | 0.00 | 93 | 1017.7 |
| 20260502104503 | 50 | 0 | 0.0 | 0.0 | 0.00 | 1.21 | 0.00 | 93 | 1017.6 |
| 20260502104003 | 50 | 0 | 0.0 | 0.0 | 0.00 | 1.21 | 0.00 | 93 | 1017.6 |
| 20260502103503 | 50 | 0 | 0.0 | 0.0 | 0.00 | 1.21 | 0.00 | 93 | 1017.5 |
| 20260502103003 | 50 | 0 | 0.0 | 0.0 | 0.00 | 1.21 | 0.00 | 93 | 1017.5 |
| 20260502102503 | 51 | 0 | 0.0 | 0.0 | 0.00 | 1.21 | 0.00 | 93 | 1017.3 |
| 20260502102003 | 51 | 0 | 0.0 | 0.0 | 0.00 | 1.21 | 0.00 | 93 | 1017.3 |
| 20260502101503 | 51 | 0 | 0.0 | 0.0 | 0.00 | 1.21 | 0.00 | 93 | 1017.2 |
| 20260502101003 | 51 | 0 | 0.0 | 0.0 | 0.00 | 1.21 | 0.00 | 93 | 1017.2 |
| 20260502100503 | 51 | 0 | 0.0 | 0.0 | 0.00 | 1.21 | 0.00 | 93 | 1017.1 |
| 20260502091503 | 51 | 0 | 0.0 | 0.0 | 0.00 | 1.21 | 0.00 | 93 | 1017.0 |
| 20260502091003 | 52 | 0 | 0.0 | 0.0 | 0.00 | 1.21 | 0.00 | 93 | 1017.1 |
| 20260502090503 | 52 | 0 | 0.0 | 0.0 | 0.00 | 1.21 | 0.00 | 93 | 1017.1 |
| 20260502071524 | 53 | 32 | 0.0 | 2.0 | 0.00 | 1.21 | 0.00 | 93 | 1017.1 |
| 20260502071024 | 53 | 32 | 0.0 | 2.0 | 0.00 | 1.21 | 0.00 | 93 | 1017.0 |
| 20260502070503 | 53 | 35 | 0.0 | 2.0 | 0.00 | 1.21 | 0.00 | 93 | 1017.1 |
| 20260502070003 | 53 | 52 | 0.0 | 3.0 | 0.00 | 1.21 | 0.00 | 93 | 1017.1 |
| 20260502065524 | 53 | 56 | 0.0 | 3.0 | 0.00 | 1.21 | 0.00 | 93 | 1017.0 |
| 20260502065024 | 53 | 92 | 0.0 | 1.0 | 0.00 | 1.21 | 0.00 | 93 | 1017.1 |
| 20260502064503 | 53 | 0 | 0.0 | 0.0 | 0.00 | 1.21 | 0.00 | 93 | 1017.0 |
| 20260502064024 | 53 | 0 | 0.0 | 0.0 | 0.00 | 1.21 | 0.00 | 93 | 1017.0 |
| 20260502063503 | 53 | 92 | 0.0 | 1.0 | 0.00 | 1.21 | 0.00 | 93 | 1016.9 |
| 20260502063003 | 53 | 92 | 0.0 | 1.0 | 0.00 | 1.21 | 0.00 | 93 | 1017.0 |
| 20260502062503 | 53 | 0 | 0.0 | 0.0 | 0.00 | 1.21 | 0.00 | 93 | 1017.0 |
| 20260502062003 | 53 | 92 | 0.0 | 1.0 | 0.00 | 1.21 | 0.00 | 93 | 1017.0 |
| 20260502061503 | 53 | 89 | 0.0 | 3.0 | 0.00 | 1.21 | 0.00 | 93 | 1016.9 |
| 20260502061003 | 53 | 89 | 0.0 | 3.0 | 0.00 | 1.21 | 0.00 | 93 | 1017.0 |
| 20260502060503 | 53 | 0 | 0.0 | 0.0 | 0.00 | 1.21 | 0.00 | 93 | 1016.9 |
| 20260502060003 | 53 | 0 | 0.0 | 0.0 | 0.00 | 1.21 | 0.00 | 93 | 1016.8 |
| 20260502055503 | 53 | 0 | 0.0 | 0.0 | 0.00 | 1.21 | 0.00 | 93 | 1016.8 |
| 20260502055024 | 53 | 0 | 0.0 | 0.0 | 0.00 | 1.22 | 0.00 | 93 | 1016.7 |
| 20260502054503 | 53 | 0 | 0.0 | 0.0 | 0.00 | 1.23 | 0.00 | 93 | 1016.8 |
| 20260502054024 | 53 | 0 | 0.0 | 0.0 | 0.00 | 1.23 | 0.00 | 93 | 1016.7 |
| 20260502053503 | 53 | 0 | 0.0 | 0.0 | 0.00 | 1.23 | 0.00 | 93 | 1016.8 |
| 20260502053003 | 53 | 0 | 0.0 | 0.0 | 0.00 | 1.23 | 0.00 | 93 | 1016.8 |
| 20260502052503 | 54 | 0 | 0.0 | 0.0 | 0.00 | 1.23 | 0.00 | 93 | 1016.9 |
| 20260502052024 | 54 | 0 | 0.0 | 0.0 | 0.00 | 1.23 | 0.00 | 93 | 1016.9 |
| 20260502051503 | 54 | 0 | 0.0 | 0.0 | 0.00 | 1.23 | 0.00 | 93 | 1016.7 |
| 20260502051003 | 54 | 0 | 0.0 | 0.0 | 0.00 | 1.23 | 0.00 | 93 | 1016.7 |
| 20260502050504 | 54 | 0 | 0.0 | 0.0 | 0.00 | 1.23 | 0.00 | 93 | 1016.7 |
| 20260502050004 | 54 | 0 | 0.0 | 0.0 | 0.00 | 1.23 | 0.00 | 93 | 1016.7 |
| 20260502045503 | 54 | 0 | 0.0 | 0.0 | 0.00 | 1.23 | 1.23 | 93 | 1016.8 |
| 20260502045024 | 54 | 0 | 0.0 | 0.0 | 0.00 | 1.23 | 1.23 | 93 | 1016.7 |
| 20260502044504 | 54 | 0 | 0.0 | 0.0 | 0.00 | 1.23 | 1.23 | 93 | 1016.8 |
| 20260502044024 | 54 | 0 | 0.0 | 0.0 | 0.00 | 1.23 | 1.23 | 93 | 1016.8 |
| 20260502043503 | 54 | 83 | 0.0 | 1.0 | 0.00 | 1.23 | 1.23 | 93 | 1016.8 |
| 20260502043003 | 54 | 83 | 0.0 | 1.0 | 0.00 | 1.23 | 1.23 | 93 | 1017.0 |
| 20260502042503 | 54 | 0 | 0.0 | 0.0 | 0.00 | 1.23 | 1.23 | 93 | 1017.0 |
| 20260502042003 | 54 | 83 | 0.0 | 1.0 | 0.00 | 1.23 | 1.23 | 93 | 1016.9 |
| 20260502041503 | 54 | 83 | 0.0 | 1.0 | 0.00 | 1.23 | 1.23 | 93 | 1017.0 |
| 20260502041025 | 54 | 83 | 0.0 | 1.0 | 0.00 | 1.23 | 1.23 | 93 | 1017.2 |
| 20260502040503 | 54 | 83 | 0.0 | 1.0 | 0.00 | 1.23 | 1.23 | 93 | 1017.1 |
| 20260502040003 | 54 | 83 | 0.0 | 1.0 | 0.00 | 1.23 | 1.23 | 93 | 1017.2 |
| 20260502035503 | 54 | 83 | 0.0 | 1.0 | 0.00 | 1.23 | 1.23 | 93 | 1017.2 |
| 20260502035003 | 54 | 83 | 1.0 | 2.0 | 0.00 | 1.23 | 1.23 | 93 | 1017.1 |
| 20260502034503 | 54 | 83 | 1.0 | 3.0 | 0.00 | 1.23 | 1.23 | 93 | 1016.8 |
| 20260502034003 | 54 | 83 | 1.0 | 3.0 | 0.00 | 1.23 | 1.23 | 93 | 1016.7 |
| 20260502033503 | 53 | 83 | 1.0 | 3.0 | 0.00 | 1.23 | 1.23 | 93 | 1016.7 |
| 20260502033003 | 53 | 83 | 1.0 | 3.0 | 0.00 | 1.24 | 1.23 | 93 | 1016.7 |
| 20260502032503 | 53 | 83 | 1.0 | 2.0 | 0.01 | 1.24 | 1.23 | 93 | 1016.5 |
| 20260502032003 | 53 | 82 | 0.0 | 2.0 | 0.01 | 1.24 | 1.23 | 93 | 1016.7 |
| 20260502031503 | 53 | 82 | 0.0 | 2.0 | 0.01 | 1.24 | 1.23 | 93 | 1016.9 |
| 20260502031024 | 53 | 0 | 0.0 | 0.0 | 0.01 | 1.24 | 1.23 | 93 | 1016.9 |
| 20260502030503 | 53 | 0 | 0.0 | 0.0 | 0.02 | 1.24 | 1.23 | 93 | 1017.2 |
| 20260502030003 | 53 | 80 | 0.0 | 2.0 | 0.02 | 1.24 | 1.23 | 93 | 1017.2 |
| 20260502025503 | 53 | 80 | 0.0 | 2.0 | 0.03 | 1.24 | 1.23 | 93 | 1017.3 |
| 20260502025003 | 53 | 80 | 0.0 | 2.0 | 0.03 | 1.24 | 1.23 | 93 | 1017.0 |
| 20260502024503 | 53 | 80 | 0.0 | 2.0 | 0.04 | 1.24 | 1.23 | 93 | 1017.0 |
| 20260502024003 | 53 | 79 | 0.0 | 2.0 | 0.04 | 1.24 | 1.23 | 93 | 1016.6 |
| 20260502023503 | 53 | 79 | 0.0 | 1.0 | 0.04 | 1.24 | 1.23 | 93 | 1016.6 |
| 20260502023003 | 53 | 79 | 0.0 | 1.0 | 0.05 | 1.24 | 1.23 | 93 | 1016.6 |
| 20260502022503 | 53 | 68 | 1.0 | 4.0 | 0.06 | 1.24 | 1.22 | 92 | 1016.4 |
| 20260502022003 | 53 | 65 | 1.0 | 4.0 | 0.07 | 1.24 | 1.22 | 93 | 1016.2 |
| 20260502021503 | 52 | 60 | 1.0 | 3.0 | 0.08 | 1.24 | 1.22 | 93 | 1016.2 |
| 20260502021024 | 52 | 60 | 0.0 | 2.0 | 0.08 | 1.25 | 1.22 | 93 | 1016.3 |
| 20260502020524 | 52 | 0 | 0.0 | 0.0 | 0.07 | 1.24 | 1.21 | 92 | 1016.5 |
| 20260502020003 | 52 | 0 | 0.0 | 0.0 | 0.07 | 1.24 | 1.21 | 92 | 1016.6 |
| 20260502015503 | 52 | 60 | 0.0 | 1.0 | 0.07 | 1.23 | 1.20 | 92 | 1016.3 |
| 20260502015003 | 52 | 60 | 0.0 | 1.0 | 0.08 | 1.23 | 1.20 | 92 | 1016.6 |
| 20260502014524 | 52 | 60 | 0.0 | 2.0 | 0.07 | 1.22 | 1.19 | 92 | 1016.5 |
| 20260502014003 | 52 | 60 | 0.0 | 2.0 | 0.07 | 1.22 | 1.19 | 92 | 1017.2 |
| 20260502013524 | 52 | 60 | 0.0 | 2.0 | 0.07 | 1.22 | 1.18 | 92 | 1016.5 |
| 20260502013003 | 52 | 60 | 0.0 | 3.0 | 0.06 | 1.21 | 1.17 | 92 | 1016.2 |
| 20260502012524 | 52 | 45 | 2.0 | 4.0 | 0.04 | 1.21 | 1.16 | 92 | 1015.9 |
| 20260502012003 | 52 | 32 | 2.0 | 4.0 | 0.04 | 1.21 | 1.15 | 92 | 1015.7 |
| 20260502011503 | 52 | 8 | 0.0 | 4.0 | 0.03 | 1.21 | 1.14 | 92 | 1016.1 |
| 20260502011003 | 52 | 6 | 0.0 | 3.0 | 0.03 | 1.22 | 1.14 | 92 | 1016.1 |
| 20260502010503 | 52 | 88 | 1.0 | 3.0 | 0.03 | 1.23 | 1.14 | 92 | 1015.9 |
| 20260502010003 | 52 | 90 | 2.0 | 6.0 | 0.03 | 1.24 | 1.14 | 92 | 1015.6 |
| 20260502005503 | 52 | 86 | 2.0 | 6.0 | 0.02 | 1.23 | 1.13 | 92 | 1015.1 |
| 20260502005003 | 52 | 81 | 2.0 | 5.0 | 0.01 | 1.23 | 1.12 | 92 | 1015.2 |
| 20260502004503 | 52 | 73 | 1.0 | 7.0 | 0.02 | 1.23 | 1.12 | 92 | 1015.6 |
| 20260502004004 | 51 | 74 | 3.0 | 8.0 | 0.02 | 1.24 | 1.12 | 92 | 1015.5 |
| 20260502003524 | 51 | 77 | 4.0 | 8.0 | 0.01 | 1.23 | 1.11 | 92 | 1014.9 |
| 20260502003003 | 51 | 78 | 4.0 | 12.0 | 0.01 | 1.23 | 1.11 | 91 | 1014.8 |
| 20260502002504 | 51 | 72 | 4.0 | 12.0 | 0.01 | 1.23 | 1.11 | 92 | 1014.7 |
| 20260502002003 | 52 | 76 | 4.0 | 13.0 | 0.01 | 1.23 | 1.11 | 92 | 1014.6 |
| 20260502001503 | 52 | 78 | 4.0 | 13.0 | 0.02 | 1.23 | 1.11 | 92 | 1014.7 |
| 20260502001024 | 52 | 72 | 4.0 | 10.0 | 0.02 | 1.23 | 1.11 | 92 | 1014.7 |
| 20260502000503 | 52 | 75 | 4.0 | 10.0 | 0.02 | 1.23 | 1.11 | 92 | 1014.4 |
| 20260502000003 | 52 | 77 | 4.0 | 11.0 | 0.03 | 1.23 | 1.11 | 92 | 1014.4 |
| 20260501235503 | 52 | 72 | 5.0 | 12.0 | 0.03 | 1.23 | 1.11 | 92 | 1014.4 |
| 20260501235003 | 52 | 71 | 5.0 | 12.0 | 0.03 | 1.23 | 1.11 | 92 | 1014.3 |
| 20260501234503 | 52 | 74 | 4.0 | 11.0 | 0.02 | 1.22 | 1.10 | 92 | 1014.4 |
| 20260501234003 | 52 | 75 | 4.0 | 10.0 | 0.03 | 1.22 | 1.10 | 92 | 1014.5 |
| 20260501233524 | 52 | 77 | 5.0 | 11.0 | 0.04 | 1.22 | 1.10 | 92 | 1014.5 |
| 20260501233024 | 52 | 80 | 4.0 | 11.0 | 0.04 | 1.22 | 1.10 | 92 | 1014.5 |
| 20260501232503 | 52 | 80 | 5.0 | 12.0 | 0.05 | 1.22 | 1.10 | 92 | 1014.6 |
| 20260501232003 | 52 | 77 | 6.0 | 12.0 | 0.06 | 1.22 | 1.10 | 92 | 1014.5 |
| 20260501231503 | 52 | 76 | 6.0 | 12.0 | 0.06 | 1.21 | 1.09 | 92 | 1014.5 |
| 20260501231003 | 53 | 76 | 6.0 | 10.0 | 0.07 | 1.21 | 1.09 | 92 | 1014.5 |
| 20260501230503 | 52 | 77 | 7.0 | 13.0 | 0.09 | 1.21 | 1.09 | 92 | 1014.5 |
| 20260501230003 | 52 | 73 | 7.0 | 13.0 | 0.10 | 1.20 | 1.09 | 92 | 1014.7 |
| 20260501225503 | 53 | 70 | 7.0 | 15.0 | 0.11 | 1.20 | 1.09 | 92 | 1014.7 |
| 20260501225003 | 53 | 74 | 6.0 | 15.0 | 0.12 | 1.20 | 1.09 | 92 | 1014.5 |
| 20260501224503 | 53 | 77 | 4.0 | 10.0 | 0.12 | 1.20 | 1.09 | 92 | 1014.5 |
| 20260501224003 | 53 | 71 | 4.0 | 12.0 | 0.12 | 1.19 | 1.08 | 92 | 1014.4 |
| 20260501223503 | 54 | 72 | 4.0 | 12.0 | 0.11 | 1.18 | 1.07 | 92 | 1014.1 |
| 20260501223003 | 53 | 78 | 4.0 | 8.0 | 0.10 | 1.17 | 1.06 | 92 | 1014.0 |
| 20260501222503 | 53 | 80 | 4.0 | 8.0 | 0.10 | 1.17 | 1.05 | 92 | 1014.0 |
| 20260501222003 | 53 | 76 | 4.0 | 9.0 | 0.09 | 1.16 | 1.04 | 92 | 1013.7 |
| 20260501221503 | 53 | 80 | 4.0 | 9.0 | 0.08 | 1.15 | 1.03 | 92 | 1013.9 |
| 20260501221003 | 53 | 80 | 3.0 | 7.0 | 0.08 | 1.15 | 1.02 | 92 | 1014.0 |
| 20260501220524 | 53 | 75 | 4.0 | 9.0 | 0.06 | 1.13 | 1.01 | 92 | 1014.0 |
| 20260501215503 | 53 | 75 | 5.0 | 11.0 | 0.04 | 1.10 | 0.98 | 92 | 1013.6 |
| 20260501215003 | 53 | 76 | 4.0 | 11.0 | 0.04 | 1.09 | 0.97 | 91 | 1013.5 |
| 20260501214503 | 53 | 78 | 4.0 | 8.0 | 0.04 | 1.09 | 0.96 | 91 | 1013.7 |
| 20260501214003 | 53 | 78 | 4.0 | 10.0 | 0.04 | 1.09 | 0.96 | 91 | 1013.9 |
| 20260501213503 | 53 | 79 | 4.0 | 10.0 | 0.04 | 1.09 | 0.96 | 91 | 1014.1 |
| 20260501213024 | 53 | 78 | 5.0 | 11.0 | 0.04 | 1.09 | 0.96 | 91 | 1013.8 |
| 20260501212503 | 53 | 80 | 5.0 | 11.0 | 0.04 | 1.08 | 0.95 | 91 | 1013.6 |
| 20260501212003 | 53 | 84 | 5.0 | 11.0 | 0.04 | 1.09 | 0.95 | 91 | 1013.6 |
| 20260501211524 | 53 | 87 | 5.0 | 11.0 | 0.04 | 1.09 | 0.95 | 91 | 1013.7 |
| 20260501211003 | 53 | 90 | 3.0 | 9.0 | 0.03 | 1.09 | 0.94 | 91 | 1014.0 |
| 20260501210503 | 53 | 104 | 2.0 | 6.0 | 0.03 | 1.09 | 0.94 | 91 | 1014.3 |
| 20260501210003 | 53 | 118 | 2.0 | 7.0 | 0.03 | 1.09 | 0.94 | 91 | 1014.3 |
| 20260501205524 | 53 | 125 | 2.0 | 7.0 | 0.02 | 1.09 | 0.93 | 91 | 1014.5 |
| 20260501205003 | 53 | 134 | 1.0 | 4.0 | 0.02 | 1.09 | 0.93 | 91 | 1014.6 |
| 20260501204503 | 53 | 104 | 1.0 | 6.0 | 0.01 | 1.09 | 0.93 | 91 | 1014.7 |
| 20260501204003 | 53 | 90 | 2.0 | 6.0 | 0.01 | 1.09 | 0.93 | 91 | 1014.5 |
| 20260501203503 | 53 | 87 | 3.0 | 7.0 | 0.00 | 1.08 | 0.92 | 91 | 1014.3 |
| 20260501203024 | 53 | 83 | 4.0 | 9.0 | 0.00 | 1.08 | 0.92 | 91 | 1014.1 |
| 20260501202524 | 53 | 74 | 4.0 | 10.0 | 0.00 | 1.08 | 0.92 | 91 | 1013.9 |
| 20260501202003 | 53 | 70 | 5.0 | 12.0 | 0.00 | 1.08 | 0.92 | 91 | 1013.7 |
| 20260501201503 | 53 | 73 | 6.0 | 17.0 | 0.00 | 1.09 | 0.92 | 91 | 1013.5 |
| 20260501201024 | 53 | 72 | 7.0 | 17.0 | 0.00 | 1.09 | 0.92 | 91 | 1013.5 |
| 20260501200524 | 53 | 74 | 7.0 | 15.0 | 0.00 | 1.09 | 0.92 | 92 | 1013.1 |
| 20260501200003 | 53 | 75 | 6.0 | 15.0 | 0.00 | 1.09 | 0.92 | 92 | 1012.6 |
| 20260501195503 | 54 | 78 | 6.0 | 13.0 | 0.00 | 1.09 | 0.92 | 92 | 1012.6 |
| 20260501195003 | 54 | 77 | 7.0 | 14.0 | 0.00 | 1.09 | 0.92 | 92 | 1012.8 |
| 20260501194503 | 54 | 73 | 7.0 | 14.0 | 0.01 | 1.09 | 0.92 | 92 | 1012.4 |
| 20260501194003 | 54 | 74 | 8.0 | 16.0 | 0.01 | 1.09 | 0.92 | 92 | 1012.3 |
| 20260501193503 | 54 | 74 | 9.0 | 20.0 | 0.01 | 1.10 | 0.92 | 92 | 1011.9 |
| 20260501193003 | 54 | 72 | 10.0 | 20.0 | 0.01 | 1.10 | 0.92 | 92 | 1011.2 |
| 20260501192503 | 54 | 73 | 9.0 | 17.0 | 0.01 | 1.11 | 0.92 | 92 | 1011.3 |
| 20260501192024 | 54 | 76 | 8.0 | 17.0 | 0.02 | 1.12 | 0.92 | 92 | 1011.4 |
| 20260501191524 | 54 | 76 | 8.0 | 17.0 | 0.02 | 1.12 | 0.92 | 92 | 1012.1 |
| 20260501191003 | 54 | 79 | 9.0 | 19.0 | 0.03 | 1.12 | 0.92 | 92 | 1012.1 |
| 20260501190503 | 54 | 81 | 8.0 | 19.0 | 0.03 | 1.12 | 0.92 | 92 | 1012.5 |
| 20260501190024 | 54 | 75 | 8.0 | 19.0 | 0.04 | 1.12 | 0.92 | 92 | 1012.5 |
| 20260501185503 | 54 | 72 | 9.0 | 16.0 | 0.04 | 1.12 | 0.92 | 92 | 1012.9 |
| 20260501185024 | 54 | 73 | 10.0 | 17.0 | 0.04 | 1.13 | 0.92 | 92 | 1012.7 |
| 20260501184504 | 54 | 76 | 10.0 | 17.0 | 0.04 | 1.13 | 0.91 | 92 | 1012.9 |
| 20260501184024 | 54 | 75 | 10.0 | 17.0 | 0.04 | 1.14 | 0.91 | 92 | 1013.3 |
| 20260501183503 | 54 | 73 | 8.0 | 14.0 | 0.05 | 1.15 | 0.91 | 92 | 1013.8 |
| 20260501183003 | 54 | 77 | 7.0 | 16.0 | 0.06 | 1.17 | 0.91 | 92 | 1014.1 |
| 20260501182503 | 54 | 76 | 9.0 | 18.0 | 0.07 | 1.23 | 0.91 | 92 | 1014.3 |
| 20260501182024 | 54 | 75 | 8.0 | 18.0 | 0.07 | 1.37 | 0.90 | 92 | 1014.2 |
| 20260501181503 | 54 | 77 | 7.0 | 12.0 | 0.08 | 1.53 | 0.90 | 93 | 1014.1 |
| 20260501181003 | 54 | 74 | 8.0 | 17.0 | 0.08 | 1.54 | 0.89 | 93 | 1014.3 |
| 20260501180503 | 54 | 71 | 10.0 | 21.0 | 0.09 | 1.54 | 0.89 | 93 | 1014.5 |
| 20260501180003 | 53 | 73 | 10.0 | 21.0 | 0.09 | 1.54 | 0.88 | 93 | 1014.5 |
| 20260501175503 | 53 | 73 | 10.0 | 18.0 | 0.09 | 1.53 | 0.87 | 93 | 1014.6 |
| 20260501175003 | 54 | 72 | 10.0 | 18.0 | 0.10 | 1.54 | 0.87 | 93 | 1014.7 |
| 20260501174503 | 54 | 75 | 9.0 | 16.0 | 0.11 | 1.58 | 0.86 | 93 | 1014.7 |
| 20260501174003 | 54 | 76 | 10.0 | 18.0 | 0.12 | 1.70 | 0.86 | 93 | 1015.0 |
| 20260501173503 | 54 | 76 | 9.0 | 18.0 | 0.13 | 1.84 | 0.85 | 93 | 1015.2 |
| 20260501173024 | 54 | 74 | 7.0 | 17.0 | 0.13 | 1.83 | 0.85 | 93 | 1015.3 |
| 20260501172024 | 55 | 81 | 6.0 | 15.0 | 0.15 | 1.82 | 0.83 | 94 | 1016.0 |